www.pogodaiklimat.ru

АРХИВ ПОГОДЫ в Майами

Время (UTC), дата Ветер
(напр.,м/с)
 
Видим.   Явления Облачность Т
(С)
Тd
(С)
f
(%)
Тe
(С)
Тes
(С)
Комфортность

P
(гПа)

Po
(гПа)
Тmin
(С)
Tmax
(С)
R
(мм)
SD
(см)
00:53 27.09 В  16 км    10/10 480 м
[средняя верхняя] 
+29.0  +24.0  74  +40  +40  очень
душно 
1017.3  1016.8  +27.8  +29.4     
01:53 27.09 В  16 км    10/10 480 м
[верхняя средняя] 
+28.3  +25.0  82  +41  +41  опасность
перегрева 
1017.6  1017.1  +27.8  +29.4     
02:53 27.09 В  16 км    10/10 480 м
[верхняя средняя] 
+28.0  +25.0  84  +40  +40  очень
душно 
1017.8  1017.5  +27.8  +29.4     
03:53 27.09 В  16 км    10/10 480 м
[верхняя средняя] 
+27.8  +25.0  85  +40  +40  очень
душно 
1017.5  1017.1  +27.8  +29.4     
04:53 27.09 В  16 км    10/10 480 м
[верхняя средняя] 
+28.3  +25.0  82  +41  +41  опасность
перегрева 
1017.1  1016.8  +27.8  +29.4     
05:53 27.09 В  16 км    10/10 480 м
[верхняя средняя] 
+28.0  +25.0  84  +40  +40  очень
душно 
1016.6  1016.1  +27.8  +28.3     
06:53 27.09 СВ  16 км    10/10 480 м
[верхняя средняя] 
+28.0  +25.0  84  +40  +40  очень
душно 
1016.2  1015.8  +27.8  +28.3     
07:53 27.09 СВ  16 км    10/10 480 м
[верхняя средняя] 
+28.3  +24.4  79  +40  +40  очень
душно 
1016.5  1016.1  +27.8  +28.3     
08:53 27.09 СВ  16 км    10/10 480 м
[верхняя средняя] 
+28.0  +25.0  84  +40  +40  очень
душно 
1016.5  1016.1  +27.8  +28.3     
09:53 27.09 СВ  16 км    10/10 480 м
[верхняя средняя] 
+28.0  +26.0  89  +42  +42  опасность
перегрева 
1016.5  1016.1  +27.8  +28.3     
10:53 27.09 В  16 км    10/10 480 м
[верхняя средняя] 
+28.3  +25.6  85  +42  +42  опасность
перегрева 
1016.6  1016.1  +27.8  +28.3     
11:53 27.09 В  16 км    10/10 480 м
[верхняя средняя] 
+29.0  +26.0  84  +44  +44  опасность
перегрева 
1016.8  1016.5  +28.3  +32.2  0.5   
13:53 27.09 В  8
{10} 
16 км    10/10 480 м
[верхняя средняя] 
+31.1  +25.6  73  +46  +46  опасность
перегрева 
1017.4  1017.1  +28.3  +32.2  0.5   
14:40 27.09 В  16 км    10/10 480 м
[верхняя средняя] 
+32.0  +25.0  67  +46  +46  опасность
перегрева 
1017.5  1017.1  +28.3  +32.2  0.5   
15:53 27.09 В  16 км    10/10 480 м
[верхняя средняя] 
+31.0  +25.0  70  +44  +44  опасность
перегрева 
1016.9  1016.5  +28.3  +32.2  0.5   
16:53 27.09 ЮВ  16 км    10/10 480 м
[верхняя средняя] 
+31.7  +25.0  68  +45  +45  опасность
перегрева 
1016.3  1015.8  +28.3  +32.2  0.5   
17:53 27.09 ЮВ  7
{10} 
16 км    10/10 480 м
[верхняя средняя] 
+32.0  +25.0  67  +46  +46  опасность
перегрева 
1015.5  1015.1  +28.9  +32.2  0.5   
18:53 27.09 В  16 км    10/10 480 м
[верхняя средняя] 
+31.0  +24.0  66  +43  +43  опасность
перегрева 
1015.1  1014.8  +28.9  +32.2  0.5   
19:53 27.09 В  16 км    10/10 480 м
[верхняя средняя] 
+30.6  +24.4  70  +43  +43  опасность
перегрева 
1014.9  1014.4  +28.9  +32.2  0.5   
20:53 27.09 В  16 км    10/10 480 м
[верхняя средняя] 
+30.0  +24.0  70  +41  +41  опасность
перегрева 
1014.9  1014.4  +28.9  +32.2  0.5   
21:53 27.09 В  16 км    10/10 480 м
[верхняя средняя] 
+29.0  +24.0  74  +40  +40  очень
душно 
1015.2  1014.8  +28.9  +32.2  0.5   
22:53 27.09 В  16 км    10/10 480 м
[верхняя средняя] 
+28.9  +24.4  77  +41  +41  опасность
перегрева 
1015.7  1015.4  +28.9  +32.2  0.5   
23:53 27.09 В  16 км    10/10 480 м
[верхняя средняя] 
+28.0  +24.0  79  +39  +39  очень
душно 
1016.4  1016.1  +28.3  +28.9  0.5   
00:53 28.09 В  16 км    10/10 480 м
[верхняя средняя] 
+28.0  +24.0  79  +39  +39  очень
душно 
1017.2  1016.8  +28.3  +28.9  0.5   
01:53 28.09 В  16 км    10/10 480 м
[верхняя средняя] 
+28.3  +24.4  79  +40  +40  очень
душно 
1017.3  1016.8  +28.3  +28.9  0.5   
02:53 28.09 В  16 км    10/10 480 м
[верхняя средняя] 
+28.0  +24.0  79  +39  +39  очень
душно 
1017.6  1017.1  +28.3  +28.9  0.5   
03:53 28.09 В  16 км    10/10 480 м
[верхняя средняя] 
+28.3  +23.9  77  +39  +39  очень
душно 
1017.8  1017.5  +28.3  +28.9  0.5   
04:53 28.09 В  16 км    10/10 480 м
[верхняя средняя] 
+28.3  +24.4  79  +40  +40  очень
душно 
1017.3  1016.8  +28.3  +28.9  0.5   
05:53 28.09 В  16 км    10/10 480 м
[верхняя средняя] 
+28.0  +23.0  74  +37  +37  очень
душно 
1016.9  1016.5  +26.7  +28.3  0.5   
06:53 28.09 В  16 км    10/10 480 м
[средняя верхняя] 
+27.0  +23.0  79  +36  +36  очень
душно 
1016.6  1016.1  +26.7  +28.3  0.5   
07:53 28.09 штиль  16 км    10/10 480 м
[средняя верхняя] 
+27.8  +22.8  74  +37  +37  очень
душно 
1016.7  1016.1  +26.7  +28.3  0.5   
08:53 28.09 штиль  16 км    10/10 480 м
[средняя верхняя] 
+27.0  +23.0  79  +36  +36  очень
душно 
1017.0  1016.5  +26.7  +28.3  0.5   
09:53 28.09 В  16 км    10/10 480 м
[средняя верхняя] 
+27.0  +24.0  84  +37  +37  очень
душно 
1017.6  1017.1  +26.7  +28.3  0.5   
10:53 28.09 В  16 км    10/10 480 м
[средняя верхняя] 
+28.3  +24.4  79  +40  +40  очень
душно 
1018.1  1017.8  +26.7  +28.3  0.5   
11:53 28.09 В  16 км    10/10 480 м
[верхняя средняя] 
+29.0  +24.0  74  +40  +40  очень
душно 
1018.2  1017.8  +28.3  +32.2  0.5   
12:53 28.09 В  16 км  слабый дождь  10/10 480 м
[верхняя средняя] 
+30.0  +24.0  70  +41  +41  опасность
перегрева 
1018.1  1017.5  +28.3  +32.2  0.5   
13:21 28.09 ЮВ  6
{10} 
16 км    10/10 480 м
[верхняя средняя] 
+30.0  +25.0  75  +43  +43  опасность
перегрева 
1018.3  1017.8  +28.3  +32.2  0.5   
14:53 28.09 ЮВ  7
{10} 
16 км    10/10 480 м
[верхняя средняя] 
+32.0  +25.0  67  +46  +46  опасность
перегрева 
1017.9  1017.5  +28.3  +32.2  0.5   
15:53 28.09 В  8
{11} 
16 км    10/10 480 м
[верхняя средняя] 
+32.0  +24.0  63  +44  +44  опасность
перегрева 
1017.5  1017.1  +28.3  +32.2  0.5   
16:53 28.09 ЮВ  16 км    10/10 480 м
[верхняя средняя] 
+31.7  +23.9  63  +43  +43  опасность
перегрева 
1017.3  1016.8  +28.3  +32.2  0.5   
17:53 28.09 В  16 км    10/10 480 м
[верхняя средняя] 
+32.0  +23.0  59  +42  +42  опасность
перегрева 
1017.2  1016.8  +28.9  +32.2  0.5   
18:53 28.09 В  5
{9} 
16 км    10/10 480 м
[верхняя средняя] 
+32.0  +23.0  59  +42  +42  опасность
перегрева 
1016.9  1016.5  +28.9  +32.2  0.5   
19:53 28.09 В  4
{8} 
16 км  слабый дождь  10/10 480 м
[верхняя средняя] 
+30.6  +23.3  65  +41  +41  опасность
перегрева 
1016.4  1016.1  +28.9  +32.2  0.5   
20:40 28.09 В  16 км    10/10 480 м
[средняя верхняя] 
+31.0  +25.0  70  +44  +44  опасность
перегрева 
1016.6  1016.1  +28.9  +32.2  0.5   
21:53 28.09 В  5
{8} 
16 км    10/10 480 м
[средняя верхняя] 
+29.0  +24.0  74  +40  +40  очень
душно 
1016.8  1016.5  +28.9  +32.2  0.5   
22:53 28.09 В  16 км    10/10 480 м
[средняя верхняя] 
+29.4  +23.9  72  +40  +40  очень
душно 
1017.2  1016.8  +28.9  +32.2  0.5   
23:53 28.09 СВ  16 км    10/10 480 м
[средняя верхняя] 
+29.0  +24.0  74  +40  +40  очень
душно 
1017.7  1017.1  +26.7  +29.4  0.5   
00:53 29.09 нст  16 км    10/10 480 м
[средняя верхняя] 
+29.0  +25.0  79  +42  +42  опасность
перегрева 
1018.4  1017.8  +26.7  +29.4  0.5   

 

Местоположение метеостанции Miami International Airport: широта 25.7906 долгота -80.3164 высота над уровнем моря 3 м.

В архиве по умолчанию представлена погода в Майами за последние 1-2 суток. Обновление информации о фактической погоде в базе происходит ежечасно! Архивные данные за месяц целиком и за предыдущие месяцы Вы можете получить, выбрав интересующий диапазон дат из раскрывающегося списка и нажав кнопку "Ввод!".

Внимание! Архив погоды МЕТАР в базе сайта в настоящее время начинается c 1 января 2013 г. Нет смысла пытаться выбрать более раннюю дату.

Внимание! Время в таблицах - всемирное. Для получения местного времени необходимо прибавить поправку, которая в Майами равна -5 ч.

Ветер - указаны скорость ветра в м/с и направление, откуда дует ветер: С - северный, СВ - северо-восточный, В - восточный, ЮВ - юго-восточный, Ю - южный, ЮЗ - юго-западный, З - западный, СЗ - северо-западный.
Видимость - горизонтальная дальность видимости в метрах или километрах. При видимости от 1 до 10 км при отсутствии осадков обычно наблюдается дымка, при ухудшении видимости до 1 км и менее - туман. В сухую погоду видимость может ухудшаться дымом, пылью или мглою.
Атмосферные явления - указаны явления, наблюдавшиеся в указанный момент времени.
Облачность - указаны через наклонную черту верхняя и нижняя облачность в баллах и высота нижней границы облаков в метрах. Внимание: облачность, как и прочие метеорологические величины в США измеряются автоматическими метеостанциями. Указанные значения в баллах носят условный характер и показывают процент времени, в течение которого, в среднем, лазерный луч высотомера отражался от облаков обратно.
T - Температура воздуха - температура, измеренная на высоте 2 м над землей.
Td - Температура точки росы - температура, при понижении до которой содержащийся в воздухе водяной пар достигнет насыщения.
f - Относительная влажность воздуха - влажноcть воздуха, измеренная на высоте 2 м над землей.
Te - Эффективная температура - температура, которую ощущает одетый по сезону человек в тени. Характеристика душности погоды. При расчете учитывается влияние влажности воздуха и скорости ветра на теплоощущения человека.
Tes - Эффективная температура на солнце - температура, которую ощущает человек, с поправкой на солнечный нагрев. Характеристика знойности погоды. Зависит от высоты солнца над горизонтом, облачности и скорости ветра. Ночью, в пасмурную погоду, а также при ветре 12 м/с и более поправка равна нулю.
P - Атмосферное давление - приведенное к уровню моря атмосферное давление.
Po - Атмосферное давление - измеренное на уровне метеостанции атмосферное давление.
Tmin - Минимальная температура - минимум температуры воздуха на высоте 2 м над землей.
Tmax - Максимальная температура - максимум температуры воздуха на высоте 2 м над землей.
R - Количество осадков - Количество выпавших осадков за 3 или 6 часов, мм.
SD - Снежный покров - Высота снежного покрова, см.